Cloud_Cover
4 0 0 0 0 5 5 5 5 2 5 3 4 17 28 10 0 0 0 0 4 54 4 15 14 0 2 2 0 2 0 0 0 0 0 0 0 5 2 1 0 3 14
1 0 0 0 2 5 0 5 0 5 95 8 90 91 33 2 0 4 0 0 0 18 0 0 0 0 0 0 0 0 0 0 0 0 0 0 0 0 0 0 0 0 10
0 0 0 28 0 0 0 0 5 46 92 100 100 57 0 0 0 0 0 0 2 45 12 3 2 0 0 0 0 0 0 0 0 0 0 0 0 1 0 0 0 0 0
0 0 4 0 0 0 0 0 54 55 66 69 0 0 0 0 15 57 21 0 6 24 1 0 0 0 0 0 0 0 0 0 0 64 2 0 0 14 18 2 6 9 1
0 0 0 3 0 0 0 0 94 5 26 0 0 0 0 0 100 100 51 99 100 10 0 4 0 0 0 0 0 0 0 0 0 0 13 0 0 67 22 10 14 3 56
0 0 0 0 0 0 0 0 0 0 0 0 0 0 0 0 73 73 64 99 81 0 0 0 0 0 0 0 0 0 0 0 8 1 0 0 0 10 29 91 99 96 73
0 0 0 0 0 0 0 0 0 0 0 0 0 0 0 0 2 32 2 0 0 0 5 0 0 0 0 0 0 0 0 0 0 0 0 0 0 10 90 89 10 93 53
0 0 0 0 26 0 0 0 0 0 0 0 0 0 2 0 4 13 0 2 5 0 0 0 0 0 0 1 0 0 0 0 0 0 0 0 0 62 42 0 0 3 58
0 0 0 0 75 90 0 0 0 0 0 0 0 0 0 0 5 6 5 5 5 5 2 2 0 3 3 2 5 0 0 0 0 0 0 0 0 78 88 0 0 19 100
0 0 0 0 99 100 0 18 0 1 6 0 2 0 1 18 100 99 100 64 7 13 9 5 4 0 0 0 0 0 0 0 0 0 0 0 1 55 94 0 5 5 2
0 0 0 0 26 55 1 0 0 0 1 0 1 0 4 48 100 100 75 7 5 5 5 2 0 1 0 0 0 0 0 1 0 0 0 0 5 25 4 0 1 0 0
0 0 5 1 0 3 0 1 2 4 4 5 5 5 2 5 5 5 4 5 3 5 5 4 3 0 0 0 0 0 5 3 0 0 0 0 0 5 5 5 3 0 0
3 0 2 1 2 4 5 3 0 6 21 15 5 5 4 5 5 5 5 5 5 16 15 5 3 5 4 4 5 5 5 0 0 0 0 0 0 0 0 0 0 0 0
5 0 0 0 0 2 1 0 0 0 8 12 10 5 5 5 6 5 5 5 5 5 8 9 5 5 5 5 5 5 0 0 0 3 0 5 5 5 5 0 3 0 2
0 0 0 0 0 5 23 24 43 98 100 85 68 28 5 33 18 5 5 5 5 5 5 23 6 5 5 4 2 0 0 0 2 5 5 5 5 39 5 16 5 5 5
4 2 5 5 5 90 100 100 100 100 100 100 100 100 96 29 5 20 7 5 5 5 12 5 5 5 5 5 5 5 4 5 5 5 5 5 8 58 46 36 20 100 100
0 4 5 5 7 78 100 100 100 100 100 100 100 100 8 14 13 9 70 84 95 51 5 12 5 5 5 48 20 5 5 5 6 47 58 88 26 56 100 100 7 5 96
5 5 3 5 7 50 81 88 96 100 100 100 96 100 89 66 7 6 92 100 92 28 4 0 1 2 6 75 84 88 10 5 5 65 100 83 96 100 31 89 5 5 55
5 8 5 5 8 35 36 11 36 98 100 100 100 100 96 85 99 96 71 19 5 5 5 3 3 3 3 11 70 62 67 11 36 62 100 100 100 39 78 91 28 90 91
21 5 19 66 67 6 72 100 100 100 100 100 100 100 100 100 100 6 5 6 16 5 8 5 4 5 5 5 5 5 5 13 10 55 79 100 100 100 100 75 100 100 99
100 100 70 100 100 100 100 64 96 100 100 100 100 100 100 100 99 28 70 91 27 8 5 5 5 3 5 5 22 36 61 100 88 100 70 56 100 100 100 100 100 97 97
100 100 95 99 100 100 100 100 100 100 100 100 100 86 38 54 32 5 53 99 90 3 0 1 1 5 100 89 56 20 48 71 100 100 100 100 100 100 100 100 100 100 100
100 100 100 100 100 100 100 100 100 100 100 100 100 70 5 2 0 5 7 5 9 24 18 17 1 3 50 85 76 13 5 3 4 31 98 100 100 100 100 100 100 100 100
100 100 100 100 100 100 100 100 86 34 46 5 62 98 100 94 26 3 2 0 1 0 0 0 70 58 5 34 25 98 70 62 84 50 31 36 93 74 100 100 100 100 100
100 100 100 100 97 91 17 64 99 90 27 5 5 5 59 44 5 5 0 0 4 20 2 5 5 99 94 31 71 90 100 100 77 99 100 100 100 93 100 100 100 100 100
100 100 100 100 100 100 99 40 10 5 37 90 60 5 5 5 5 7 3 5 4 8 13 8 6 33 64 61 100 100 93 27 80 98 52 73 100 100 100 95 100 100 100